Wind_Speed
4 5 4 4 4 8 8 5 7 4 9 6 6 6 7 6 6 6 5 6 7 7 12 20 25 27 24 21 19 19 20 19 19 18 19 19 19 19 18 18 18 16 16 17
3 1 5 6 9 10 12 8 10 8 15 8 6 5 6 7 5 6 5 7 8 9 16 21 27 29 26 23 24 21 21 22 20 18 16 18 19 19 18 19 19 18 18 19
4 4 6 7 11 14 5 5 11 10 7 4 4 4 5 5 5 6 7 7 9 9 17 23 26 28 28 27 25 24 23 23 20 18 17 17 17 18 19 20 19 20 20 20
3 5 3 3 1 3 11 4 9 2 4 1 4 5 7 5 2 6 8 8 12 17 21 24 28 28 26 25 25 25 26 24 21 18 18 19 17 18 19 19 19 20 21 21
1 2 7 1 0 4 5 1 5 7 4 3 2 2 3 3 4 4 6 14 17 22 25 27 26 26 26 27 25 23 24 23 19 18 17 17 18 19 19 19 19 21 21 21
2 1 5 2 2 2 1 3 2 4 3 2 3 3 4 5 6 10 17 18 20 24 25 25 27 27 26 26 25 24 25 22 20 18 17 16 17 18 19 19 21 21 22 22
3 3 8 6 5 2 1 3 2 3 2 1 0 4 3 7 7 12 15 20 20 23 24 26 26 25 27 27 26 27 26 22 17 14 15 17 18 18 19 20 21 22 23 23
4 4 8 3 2 3 2 1 3 2 2 3 4 7 5 6 7 13 16 19 21 20 22 26 25 24 25 25 28 27 27 22 19 17 17 17 18 19 20 20 21 22 22 23
9 6 2 2 1 2 2 2 2 1 2 2 4 3 5 5 7 12 16 19 21 20 22 26 26 27 24 28 28 28 25 23 22 23 22 19 18 18 18 15 16 19 19 21
1 4 5 4 4 3 2 2 2 1 2 0 2 3 4 5 6 10 14 16 20 23 20 22 27 29 28 29 26 26 27 25 23 22 21 19 17 16 15 16 16 17 17 19
5 4 3 1 3 2 2 3 2 3 2 3 3 4 4 5 8 13 17 21 21 21 22 25 31 32 31 29 27 26 26 24 21 19 18 19 17 17 15 16 15 17 17 16
5 3 2 3 4 2 3 2 1 1 3 3 3 5 6 8 13 15 18 22 22 21 23 31 33 35 35 31 28 26 27 25 23 20 19 18 17 20 13 12 9 11 13 14
3 2 2 6 4 2 3 2 1 2 2 3 5 6 9 9 12 15 17 17 17 21 24 26 30 32 32 30 29 28 25 26 25 21 20 17 15 14 17 17 11 7 8 9
2 3 3 3 3 2 2 1 1 2 2 3 6 8 9 13 16 14 15 21 24 26 27 25 30 31 29 27 28 27 25 24 22 20 17 16 15 14 14 14 18 21 16 15
4 4 3 5 2 2 1 1 2 3 5 6 7 8 12 15 16 20 25 24 24 26 23 25 28 31 27 27 28 28 27 26 24 23 21 19 17 17 16 17 18 22 24 23
3 5 4 3 3 3 1 2 3 5 6 8 13 16 18 19 22 24 25 24 19 21 29 29 30 29 28 28 27 28 29 28 27 26 24 24 24 24 24 24 24 26 27 27
3 2 2 2 1 4 4 6 6 7 12 13 16 19 22 23 23 22 26 27 26 27 28 28 27 26 26 27 26 27 28 29 27 27 28 28 26 25 24 23 22 24 27 29
3 3 4 5 5 6 6 8 13 15 15 19 21 21 22 20 16 22 27 26 28 29 30 27 25 25 27 27 26 26 28 28 27 26 27 25 25 26 25 24 23 23 27 29
3 6 8 8 9 10 12 14 17 19 21 23 21 21 23 25 25 26 27 25 25 20 30 29 28 29 30 31 27 27 26 27 23 22 22 23 25 24 24 24 24 25 26 25
6 8 11 13 14 14 16 22 24 24 26 24 24 22 22 26 27 27 27 23 29 29 29 30 30 32 31 31 28 27 27 27 23 23 23 22 23 24 24 24 25 25 26 24
9 13 15 16 19 23 23 25 24 22 27 26 22 21 22 28 29 27 21 14 33 32 29 28 30 32 31 27 27 26 25 24 23 24 23 24 23 23 23 23 23 23 23 22
11 11 16 18 18 21 27 28 27 28 28 28 29 27 25 26 26 26 29 25 33 29 27 31 32 32 28 28 29 27 26 25 26 25 24 24 22 22 23 23 22 21 22 21
20 21 19 19 20 23 27 28 30 28 28 27 25 25 22 25 24 17 13 29 24 30 29 31 31 29 27 29 26 27 25 26 27 28 27 26 26 25 25 24 22 22 21 21
23 24 24 27 26 22 16 28 25 26 27 29 29 28 25 23 26 29 31 30 30 31 30 31 31 29 26 28 27 26 25 25 27 28 29 29 27 27 26 25 23 22 22 21
22 25 25 24 19 20 21 25 23 25 24 25 27 29 30 29 24 31 31 33 30 30 31 33 31 26 28 25 23 25 28 28 30 31 30 28 28 26 25 24 24 21 19 18
21 20 21 24 25 25 23 21 17 22 19 19 24 28 31 29 29 27 31 32 30 30 29 32 32 30 29 29 27 26 29 31 32 30 29 28 25 24 22 21 20 18 16 15
22 23 21 21 23 22 24 23 18 21 22 20 21 28 31 29 27 25 25 28 29 29 28 31 31 31 29 28 27 27 29 30 29 28 25 22 21 20 18 17 15 14 16 16
Wind_Direction
231 228 194 219 196 184 199 186 185 229 217 244 261 280 293 298 315 319 341 343 338 329 324 332 337 337 332 325 326 325 320 314 305 294 276 268 264 264 263 261 263 269 271 271
287 42 217 252 229 210 217 225 252 265 276 218 262 235 287 293 280 283 296 327 325 320 328 330 331 332 328 322 319 321 314 306 306 299 286 272 267 265 265 265 266 267 268 272
276 342 315 287 230 205 191 202 210 215 223 236 258 305 288 298 299 292 306 315 317 315 316 319 326 328 322 321 317 315 310 303 300 302 291 281 272 264 262 263 267 266 268 269
283 341 261 260 291 180 206 226 218 194 176 176 255 267 279 273 270 341 324 320 325 320 319 323 328 330 329 326 323 321 315 310 301 299 293 287 278 267 264 263 266 269 270 270
187 234 292 8 146 141 177 313 204 214 259 204 310 330 326 87 46 324 305 312 314 324 326 328 333 336 333 330 330 326 328 325 315 306 294 290 280 278 276 271 269 268 272 273
121 208 242 289 334 345 335 327 69 117 110 36 35 22 257 358 340 328 332 334 331 336 334 336 340 338 333 332 330 329 333 326 319 311 301 295 292 288 285 281 278 277 275 272
194 269 285 250 264 306 113 217 100 110 135 47 250 205 290 334 326 327 332 336 339 343 336 340 345 341 333 331 330 331 328 321 315 314 312 309 305 297 292 287 283 279 278 278
176 210 271 203 69 176 193 141 122 68 27 339 310 314 323 314 317 328 332 336 342 333 332 346 348 344 334 327 337 336 332 323 316 316 313 309 303 302 298 292 285 282 284 284
186 207 228 266 53 39 100 135 98 60 9 326 303 327 313 308 317 321 326 328 341 333 329 345 352 349 333 337 338 335 333 326 321 319 318 315 308 305 301 295 284 283 286 289
146 210 212 222 143 110 46 102 82 71 283 74 276 303 305 311 313 318 325 328 336 334 327 324 341 344 345 343 339 332 328 326 325 323 324 322 317 312 304 298 292 287 288 289
257 266 82 60 116 134 122 81 52 5 324 313 318 321 312 318 320 327 328 332 335 333 327 326 336 337 341 346 340 330 328 328 328 327 325 323 320 317 312 307 298 294 293 293
232 190 158 151 142 104 119 127 89 344 327 345 323 314 317 314 326 328 326 333 334 334 336 336 338 337 341 344 345 333 324 324 323 320 319 319 319 320 323 321 315 300 298 292
209 173 109 126 125 147 155 178 199 214 258 312 340 329 323 308 311 314 321 328 326 323 328 333 332 329 342 341 337 335 324 319 319 317 316 318 319 318 319 330 332 324 314 309
40 117 81 168 182 161 189 192 302 274 280 285 297 313 307 303 313 316 320 328 333 330 327 331 331 327 340 339 337 334 332 324 315 313 311 309 308 306 306 307 314 318 321 317
63 46 100 120 129 230 267 296 320 314 304 298 297 304 334 324 319 318 325 332 331 327 323 322 322 326 337 338 335 331 328 325 324 316 309 304 303 301 299 297 298 301 308 309
134 114 129 165 229 303 322 346 304 299 305 310 321 324 322 316 312 313 321 328 317 314 321 321 320 329 331 333 334 333 331 329 325 314 308 305 305 304 304 301 300 299 295 300
121 249 278 301 337 308 293 292 286 288 303 302 302 312 315 313 312 312 318 325 324 318 318 316 319 329 326 324 328 326 323 321 321 317 314 308 299 292 289 287 285 287 288 299
288 282 271 255 272 289 297 294 299 299 290 299 301 305 305 301 288 297 306 316 318 318 322 326 323 320 317 318 318 319 322 318 316 311 310 305 298 294 286 281 280 278 288 298
279 283 291 289 288 284 284 287 292 298 299 298 299 293 298 296 295 300 305 308 305 300 317 324 323 320 316 318 317 312 308 310 307 303 301 299 296 292 287 283 281 280 286 291
303 301 300 298 301 290 283 293 296 297 299 297 297 291 285 291 296 297 299 288 294 295 314 317 319 316 315 315 314 302 295 293 292 301 300 294 294 290 285 280 277 278 281 284
287 300 300 299 295 300 298 300 295 286 296 298 286 278 278 285 287 286 280 276 298 310 311 311 313 314 314 312 313 302 297 290 286 284 291 295 288 283 280 278 275 274 274 279
281 274 280 289 287 288 297 301 298 294 291 288 287 283 279 279 283 286 288 268 295 309 309 310 310 314 306 305 305 301 294 294 293 289 284 284 281 282 281 277 271 270 273 283
292 289 285 280 273 279 294 292 291 287 280 280 280 281 276 278 280 278 283 295 295 303 307 303 304 307 305 306 301 300 293 294 293 295 289 285 281 280 281 278 273 273 277 278
287 285 283 289 290 281 273 287 288 289 290 291 290 294 286 282 288 290 290 291 299 303 302 304 304 306 306 302 300 296 293 291 293 293 291 288 286 283 278 274 271 272 275 277
272 275 278 276 271 271 272 280 289 291 291 292 298 304 303 294 263 288 298 298 299 302 302 309 309 302 304 296 294 294 290 291 293 292 291 286 285 283 278 274 276 278 282 286
266 268 271 272 269 276 276 276 266 276 276 275 285 296 302 300 295 293 298 300 298 300 298 304 304 306 304 298 294 295 293 292 293 294 293 290 289 289 290 292 292 293 288 286
276 273 272 276 275 270 267 263 256 263 273 265 270 286 294 296 293 291 290 290 294 296 296 301 304 305 304 300 297 295 296 295 295 299 300 302 302 300 300 298 293 287 291 293
Height
847 847 847 842 842 855 863 854 851 843 852 834 832 832 830 827 827 825 822 820 818 815 811 808 804 800 797 794 792 789 786 782 779 778 777 778 777 778 778 778 778 778 778 778
847 845 851 848 843 844 844 841 846 842 836 832 827 830 828 826 826 824 821 820 817 813 809 805 802 799 795 792 789 786 783 780 777 775 773 772 772 773 773 773 773 773 773 773
849 855 850 845 831 832 832 835 827 838 824 820 824 825 824 823 825 823 822 820 816 812 808 805 802 798 793 789 785 782 778 775 773 771 769 768 767 767 766 766 768 768 767 767
861 857 839 813 819 820 825 822 827 821 823 822 823 824 824 823 822 822 821 818 814 811 807 803 799 794 790 785 782 778 774 771 768 766 765 764 763 761 761 761 761 761 760 761
858 868 842 811 818 823 819 814 822 825 823 823 821 823 821 819 822 822 821 818 814 810 806 801 796 792 786 781 778 774 770 767 764 762 760 759 758 757 757 755 754 753 753 753
868 864 838 814 814 814 813 822 819 821 820 822 823 831 830 822 822 820 818 816 812 807 804 799 794 789 784 779 775 771 766 762 760 759 757 755 753 752 752 751 749 749 747 747
860 859 845 825 818 815 815 826 819 819 820 821 826 827 824 823 821 819 817 813 810 806 801 797 792 788 783 778 773 769 764 760 756 754 754 752 750 748 747 745 744 743 742 741
845 854 848 819 815 814 819 819 818 819 820 822 824 824 823 822 819 816 813 809 807 803 799 794 791 786 781 776 771 766 761 758 755 752 750 748 745 743 742 740 739 738 737 735
831 827 816 818 817 818 817 818 819 820 822 824 824 823 823 821 817 814 811 808 804 800 796 792 788 784 779 773 767 762 759 755 752 749 747 744 741 739 736 734 733 732 732 730
826 813 814 811 814 817 818 819 821 822 821 821 821 820 819 818 815 812 809 805 802 797 793 788 785 781 777 770 765 761 756 752 749 745 742 741 739 736 733 731 729 727 726 725
825 815 818 815 815 816 816 819 820 821 821 821 820 819 818 816 813 811 808 804 801 797 792 787 781 776 772 768 763 758 754 750 746 744 741 737 735 733 731 729 727 724 723 721
817 812 811 812 816 817 818 818 818 820 820 820 820 820 818 816 813 810 806 802 798 795 791 785 779 774 769 765 761 757 751 748 745 741 738 735 731 728 727 724 723 721 720 718
810 811 813 816 817 817 818 818 818 818 820 819 819 818 817 815 812 809 805 801 797 794 789 785 779 774 769 764 759 754 750 745 741 739 736 733 730 727 724 719 719 718 716 715
812 813 816 816 817 817 817 817 817 818 818 818 817 815 814 812 808 805 801 798 795 790 786 782 777 771 767 762 757 752 747 743 740 736 733 730 727 725 723 721 717 714 713 712
814 814 813 815 817 818 818 817 817 816 815 814 813 811 808 806 803 799 796 794 791 787 782 779 773 767 763 758 754 748 744 740 737 733 731 728 725 722 719 717 715 712 708 706
815 814 815 815 816 816 817 817 816 814 812 810 808 805 804 802 799 796 792 790 788 783 778 773 768 763 759 755 750 745 740 737 733 729 726 723 721 719 716 713 710 706 703 700
814 815 814 814 815 815 814 814 812 810 808 806 804 802 800 797 794 790 787 785 782 777 773 768 763 759 755 751 747 742 738 733 729 726 722 718 715 712 709 706 703 700 697 695
814 814 814 815 814 813 811 810 809 807 805 802 799 798 796 793 790 786 782 779 775 770 765 761 757 754 750 746 743 738 733 728 724 720 716 713 709 706 703 699 695 692 688 687
812 811 811 811 810 809 807 805 803 801 800 797 795 793 790 787 783 779 775 772 768 764 757 754 750 747 743 739 736 732 727 722 718 714 711 706 703 699 695 692 688 686 682 679
809 809 809 808 807 806 803 800 798 796 793 791 789 786 783 778 774 771 768 764 760 756 751 747 743 740 736 733 730 726 720 715 711 707 703 700 696 691 687 684 681 677 675 672
807 806 806 804 802 800 798 795 793 789 785 784 781 778 774 769 766 763 761 758 749 747 745 741 738 733 730 727 723 718 713 709 704 700 695 691 687 683 679 676 672 669 667 665
801 800 799 797 795 792 790 788 785 781 778 775 771 769 766 761 758 755 752 750 742 740 737 733 729 726 723 720 716 711 706 702 698 692 687 683 679 675 671 667 664 662 660 658
795 793 792 789 787 784 781 778 775 774 770 766 764 761 760 755 752 751 744 739 736 733 730 726 722 719 716 712 708 703 699 694 690 685 680 675 671 667 663 660 657 655 653 652
790 788 786 782 780 778 774 768 767 765 762 758 756 753 752 748 743 740 734 732 729 726 722 717 713 711 708 703 699 695 691 686 682 677 672 668 663 659 656 652 649 648 646 645
784 781 779 776 773 768 764 760 758 755 752 749 746 743 740 738 737 730 727 724 721 718 713 708 705 702 699 695 691 687 683 679 674 669 664 659 655 651 648 645 643 642 641 640
775 772 769 766 763 760 757 756 752 747 745 741 737 734 731 729 726 723 720 715 712 709 706 701 697 694 690 686 683 679 675 670 665 660 656 652 648 645 643 641 639 637 636 635
765 762 758 755 752 750 747 745 743 738 735 733 730 727 723 720 717 715 713 709 705 701 698 694 690 686 683 679 675 671 667 662 657 653 650 647 644 641 639 636 635 633 632 631